• In Deutschland
  • Länderverzeichnis
  • Für 7 Tage
  • Wassertemperatur
  • Satellitenkarten
  • Wetterkarte
  • Widgets
  • user-avatar
    Anmelden

    Stündliche Wetter Donaueschingen

    Heute, 21 Juni, Donnerstag

    Zeit Temperatur Niederschläge Wind Luftdruck Luftfeuchtigkeit
    00:00 +17°C° 0,2 mm 0 m/S 704 mmHg 88%
    01:00 +19°C° 0 mm 1 m/S 704 mmHg 87%
    02:00 +18°C° 0 mm 1 m/S 704 mmHg 88%
    03:00 +18°C° 0 mm 1 m/S 704 mmHg 90%
    04:00 +16°C° 0 mm 1 m/S 704 mmHg 91%
    05:00 +19°C° 0 mm 1 m/S 704 mmHg 88%
    06:00 +20°C° 0 mm 1 m/S 704 mmHg 86%
    07:00 +21°C° 0 mm 1 m/S 704 mmHg 83%
    08:00 +21°C° 0 mm 2 m/S 704 mmHg 76%
    09:00 +22°C° 0 mm 3 m/S 704 mmHg 69%
    10:00 +25°C° 0 mm 4 m/S 704 mmHg 62%
    11:00 +25°C° 0,1 mm 4 m/S 704 mmHg 58%
    12:00 +26°C° 0,1 mm 4 m/S 704 mmHg 54%
    13:00 +26°C° 0,1 mm 5 m/S 704 mmHg 50%
    14:00 +25°C° 0,1 mm 5 m/S 704 mmHg 55%
    15:00 +23°C° 0,1 mm 5 m/S 704 mmHg 61%
    16:00 +22°C° 0,1 mm 5 m/S 704 mmHg 66%
    17:00 +21°C° 0,1 mm 5 m/S 704 mmHg 69%
    18:00 +19°C° 0,1 mm 4 m/S 704 mmHg 72%
    19:00 +17°C° 0,1 mm 4 m/S 705 mmHg 74%
    20:00 +14°C° 0 mm 3 m/S 705 mmHg 75%
    21:00 +12°C° 0 mm 3 m/S 705 mmHg 75%
    22:00 +12°C° 0 mm 2 m/S 706 mmHg 76%
    23:00 +9°C° 0 mm 2 m/S 706 mmHg 76%

    Morgen, 22 Juni, Freitag

    Zeit Temperatur Niederschläge Wind Luftdruck Luftfeuchtigkeit
    00:00 +8°C° 0 mm 2 m/S 706 mmHg 77%
    01:00 +7°C° 0 mm 2 m/S 706 mmHg 77%
    02:00 +7°C° 0 mm 2 m/S 706 mmHg 79%
    03:00 +7°C° 0 mm 1 m/S 706 mmHg 81%
    04:00 +6°C° 0 mm 1 m/S 706 mmHg 84%
    05:00 +7°C° 0 mm 1 m/S 707 mmHg 79%
    06:00 +8°C° 0 mm 2 m/S 707 mmHg 75%
    07:00 +9°C° 0 mm 2 m/S 708 mmHg 71%
    08:00 +12°C° 0 mm 2 m/S 708 mmHg 64%
    09:00 +13°C° 0 mm 2 m/S 708 mmHg 56%
    10:00 +15°C° 0 mm 2 m/S 708 mmHg 49%
    11:00 +16°C° 0 mm 2 m/S 708 mmHg 48%
    12:00 +17°C° 0 mm 3 m/S 708 mmHg 46%
    13:00 +18°C° 0 mm 3 m/S 708 mmHg 45%
    14:00 +18°C° 0 mm 3 m/S 708 mmHg 46%
    15:00 +18°C° 0 mm 3 m/S 708 mmHg 47%
    16:00 +18°C° 0 mm 3 m/S 707 mmHg 48%
    17:00 +17°C° 0 mm 3 m/S 707 mmHg 54%
    18:00 +16°C° 0 mm 3 m/S 707 mmHg 60%
    19:00 +14°C° 0 mm 3 m/S 707 mmHg 66%
    20:00 +13°C° 0 mm 2 m/S 707 mmHg 72%
    21:00 +10°C° 0 mm 2 m/S 708 mmHg 79%
    22:00 +8°C° 0 mm 2 m/S 708 mmHg 85%
    23:00 +8°C° 0 mm 1 m/S 708 mmHg 87%

    übermorgen, 23 Juni, Samstag

    Zeit Temperatur Niederschläge Wind Luftdruck Luftfeuchtigkeit
    00:00 +8°C° 0 mm 1 m/S 707 mmHg 89%
    01:00 +7°C° 0 mm 1 m/S 707 mmHg 91%
    02:00 +7°C° 0 mm 1 m/S 707 mmHg 91%
    03:00 +6°C° 0 mm 1 m/S 707 mmHg 92%
    04:00 +6°C° 0 mm 1 m/S 707 mmHg 93%
    05:00 +8°C° 0 mm 1 m/S 707 mmHg 87%
    06:00 +9°C° 0 mm 1 m/S 707 mmHg 82%
    07:00 +11°C° 0 mm 1 m/S 708 mmHg 76%
    08:00 +12°C° 0 mm 1 m/S 708 mmHg 69%
    09:00 +14°C° 0 mm 1 m/S 708 mmHg 62%
    10:00 +16°C° 0 mm 2 m/S 708 mmHg 55%
    11:00 +17°C° 0 mm 2 m/S 708 mmHg 52%
    12:00 +18°C° 0 mm 2 m/S 708 mmHg 49%
    13:00 +19°C° 0 mm 2 m/S 708 mmHg 46%
    14:00 +19°C° 0 mm 3 m/S 707 mmHg 46%
    15:00 +19°C° 0 mm 3 m/S 707 mmHg 46%
    16:00 +19°C° 0 mm 3 m/S 707 mmHg 47%
    17:00 +18°C° 0 mm 3 m/S 707 mmHg 52%
    18:00 +17°C° 0 mm 3 m/S 706 mmHg 58%
    19:00 +16°C° 0 mm 2 m/S 706 mmHg 64%
    20:00 +14°C° 0 mm 2 m/S 706 mmHg 67%
    21:00 +13°C° 0 mm 2 m/S 706 mmHg 71%
    22:00 +10°C° 0 mm 2 m/S 706 mmHg 75%
    23:00 +10°C° 0 mm 2 m/S 706 mmHg 77%

    24 Juni, Sonntag

    Zeit Temperatur Niederschläge Wind Luftdruck Luftfeuchtigkeit
    00:00 +10°C° 0 mm 2 m/S 706 mmHg 79%
    01:00 +10°C° 0 mm 1 m/S 706 mmHg 81%
    02:00 +10°C° 0,1 mm 1 m/S 705 mmHg 85%
    03:00 +9°C° 0,1 mm 1 m/S 705 mmHg 88%
    04:00 +9°C° 0,1 mm 1 m/S 705 mmHg 92%
    05:00 +10°C° 0 mm 1 m/S 705 mmHg 89%
    06:00 +11°C° 0 mm 1 m/S 705 mmHg 86%
    07:00 +11°C° 0 mm 1 m/S 705 mmHg 84%
    08:00 +13°C° 0 mm 2 m/S 705 mmHg 75%
    09:00 +15°C° 0 mm 2 m/S 705 mmHg 67%
    10:00 +16°C° 0 mm 2 m/S 706 mmHg 59%
    11:00 +17°C° 0 mm 2 m/S 705 mmHg 58%
    12:00 +17°C° 0 mm 2 m/S 705 mmHg 56%
    13:00 +18°C° 0 mm 3 m/S 705 mmHg 55%
    14:00 +18°C° 0,1 mm 3 m/S 705 mmHg 56%
    15:00 +18°C° 0,1 mm 3 m/S 705 mmHg 57%
    16:00 +19°C° 0,1 mm 3 m/S 705 mmHg 58%
    17:00 +18°C° 0,1 mm 3 m/S 705 mmHg 64%
    18:00 +17°C° 0,1 mm 3 m/S 705 mmHg 70%
    19:00 +16°C° 0,1 mm 3 m/S 705 mmHg 76%
    20:00 +14°C° 0 mm 2 m/S 705 mmHg 82%
    21:00 +12°C° 0 mm 2 m/S 705 mmHg 87%
    22:00 +10°C° 0 mm 2 m/S 705 mmHg 92%
    23:00 +9°C° 0 mm 2 m/S 705 mmHg 93%

    25 Juni, Montag

    Zeit Temperatur Niederschläge Wind Luftdruck Luftfeuchtigkeit
    00:00 +8°C° 0 mm 2 m/S 705 mmHg 94%
    01:00 +8°C° 0 mm 2 m/S 704 mmHg 95%
    02:00 +9°C° 0 mm 1 m/S 704 mmHg 95%
    03:00 +8°C° 0 mm 1 m/S 704 mmHg 96%
    04:00 +8°C° 0 mm 1 m/S 704 mmHg 96%
    05:00 +9°C° 0 mm 1 m/S 704 mmHg 92%
    06:00 +9°C° 0 mm 2 m/S 704 mmHg 89%
    07:00 +10°C° 0 mm 2 m/S 705 mmHg 85%
    08:00 +13°C° 0 mm 2 m/S 705 mmHg 77%
    09:00 +14°C° 0 mm 3 m/S 705 mmHg 70%
    10:00 +16°C° 0 mm 3 m/S 705 mmHg 62%
    11:00 +17°C° 0 mm 3 m/S 705 mmHg 59%
    12:00 +18°C° 0 mm 3 m/S 705 mmHg 56%
    13:00 +19°C° 0 mm 3 m/S 705 mmHg 54%
    14:00 +19°C° 0 mm 3 m/S 705 mmHg 54%
    15:00 +19°C° 0 mm 4 m/S 705 mmHg 54%
    16:00 +19°C° 0 mm 4 m/S 705 mmHg 54%
    17:00 +18°C° 0 mm 3 m/S 705 mmHg 59%
    18:00 +18°C° 0 mm 3 m/S 705 mmHg 64%
    19:00 +17°C° 0 mm 3 m/S 705 mmHg 69%
    20:00 +14°C° 0 mm 3 m/S 705 mmHg 76%
    21:00 +13°C° 0 mm 2 m/S 705 mmHg 82%
    22:00 +12°C° 0 mm 2 m/S 705 mmHg 89%
    23:00 +10°C° 0 mm 2 m/S 705 mmHg 90%

    26 Juni, Dienstag

    Zeit Temperatur Niederschläge Wind Luftdruck Luftfeuchtigkeit
    00:00 +10°C° 0 mm 2 m/S 705 mmHg 92%
    01:00 +9°C° 0 mm 2 m/S 705 mmHg 93%
    02:00 +9°C° 0 mm 2 m/S 705 mmHg 94%
    03:00 +8°C° 0 mm 2 m/S 704 mmHg 94%
    04:00 +8°C° 0 mm 2 m/S 704 mmHg 94%
    05:00 +10°C° 0 mm 2 m/S 704 mmHg 90%
    06:00 +12°C° 0 mm 2 m/S 705 mmHg 85%
    07:00 +12°C° 0 mm 3 m/S 705 mmHg 80%
    08:00 +14°C° 0 mm 3 m/S 705 mmHg 72%
    09:00 +17°C° 0 mm 4 m/S 705 mmHg 65%
    10:00 +19°C° 0 mm 5 m/S 705 mmHg 57%
    11:00 +20°C° 0 mm 5 m/S 705 mmHg 55%
    12:00 +21°C° 0 mm 5 m/S 705 mmHg 52%
    13:00 +22°C° 0 mm 5 m/S 705 mmHg 50%
    14:00 +22°C° 0 mm 5 m/S 705 mmHg 50%
    15:00 +22°C° 0 mm 5 m/S 705 mmHg 51%
    16:00 +22°C° 0 mm 5 m/S 705 mmHg 51%
    17:00 +21°C° 0 mm 5 m/S 705 mmHg 56%
    18:00 +20°C° 0 mm 4 m/S 705 mmHg 61%
    19:00 +19°C° 0 mm 4 m/S 705 mmHg 66%
    20:00 +17°C° 0 mm 3 m/S 706 mmHg 71%
    21:00 +16°C° 0 mm 3 m/S 706 mmHg 76%
    22:00 +13°C° 0 mm 3 m/S 706 mmHg 81%
    23:00 +13°C° 0 mm 3 m/S 706 mmHg 83%
    Mehr zeigen